DL8NDG-13 Weather Reports


Display with metric or nautical units.
time (UTC)temp
F
wind
direction
speed
MPH
gust
MPH
rain 1hr
in
rain 24hr
in
rain mn
in
humidity
%
barometer
mb
20260904181635 80 170 4.0 11.0 0.00 0.00 0.00 52 1010.7
20260904180034 81 195 6.0 12.0 0.00 0.00 0.00 51 1010.6
20260904174537 81 192 3.0 12.0 0.00 0.00 0.00 50 1010.6
20260904173040 82 177 5.0 14.0 0.00 0.00 0.00 50 1010.6
20260904171535 83 233 6.0 17.0 0.00 0.00 0.00 49 1010.6
20260904170042 83 222 8.0 18.0 0.00 0.00 0.00 48 1010.6
20260904164533 84 186 11.0 20.0 0.00 0.00 0.00 48 1010.7
20260904163031 84 198 9.0 23.0 0.00 0.00 0.00 47 1010.7
20260904161532 85 184 8.0 17.0 0.00 0.00 0.00 47 1010.8
20260904160029 85 192 10.0 18.0 0.00 0.00 0.00 46 1010.7
20260904154530 86 360 8.0 15.0 0.00 0.00 0.00 45 1010.7
20260904153027 86 217 7.0 19.0 0.00 0.00 0.00 45 1010.7
20260904151526 85 179 10.0 19.0 0.00 0.00 0.00 45 1010.7
20260904150033 86 184 9.0 22.0 0.00 0.00 0.00 46 1010.6
20260904144523 86 186 10.0 19.0 0.00 0.00 0.00 46 1010.7
20260904143022 86 360 11.0 20.0 0.00 0.00 0.00 47 1010.9
20260904141531 86 202 9.0 20.0 0.00 0.00 0.00 48 1011.0
20260904140030 86 360 8.0 16.0 0.00 0.00 0.00 48 1011.3
20260904134512 85 161 12.0 22.0 0.00 0.00 0.00 50 1011.3
20260904133010 85 173 10.0 20.0 0.00 0.00 0.00 49 1011.5
20260904131506 84 179 10.0 19.0 0.00 0.00 0.00 50 1011.8
20260904130005 85 202 7.0 16.0 0.00 0.00 0.00 51 1012.2
20260904124501 84 221 7.0 22.0 0.00 0.00 0.00 51 1012.6
20260904123100 84 167 12.0 19.0 0.00 0.00 0.00 50 1012.8
20260904121557 83 160 10.0 19.0 0.00 0.00 0.00 53 1013.0
20260904120104 82 158 12.0 20.0 0.00 0.00 0.00 53 1013.3
20260904114549 82 157 6.0 16.0 0.00 0.00 0.00 53 1013.4
20260904113048 82 360 9.0 18.0 0.00 0.00 0.00 54 1013.6
20260904111545 81 154 10.0 19.0 0.00 0.00 0.00 55 1013.8
20260904110045 81 360 10.0 19.0 0.00 0.00 0.00 55 1013.9
20260904104544 82 223 10.0 19.0 0.00 0.00 0.00 54 1014.0
20260904103039 79 206 10.0 21.0 0.00 0.00 0.00 57 1014.3
20260904101535 80 197 8.0 19.0 0.00 0.00 0.00 57 1014.5
20260904100032 79 207 11.0 18.0 0.00 0.00 0.00 58 1014.8
20260904094539 79 360 8.0 15.0 0.00 0.00 0.00 60 1015.0
20260904093022 78 360 10.0 19.0 0.00 0.00 0.00 60 1015.1
20260904091525 78 177 10.0 18.0 0.00 0.00 0.00 62 1015.3
20260904090016 77 161 6.0 13.0 0.00 0.00 0.00 65 1015.7
20260904084510 75 176 0.0 0.0 0.00 0.00 0.00 68 1016.0
20260904083005 72 196 0.0 0.0 0.00 0.00 0.00 71 1016.2
20260904081602 71 176 0.0 0.0 0.00 0.00 0.00 72 1016.4
20260904080104 70 178 0.0 0.0 0.00 0.00 0.00 72 1016.5
20260904074556 69 177 0.0 0.0 0.00 0.00 0.00 73 1016.7
20260904073101 69 170 0.0 0.0 0.00 0.00 0.00 73 1016.6
20260904071548 69 360 0.0 0.0 0.00 0.00 0.00 75 1016.7
20260904070046 68 360 0.0 0.0 0.00 0.00 0.00 76 1016.9
20260904064543 67 360 0.0 0.0 0.00 0.00 0.00 77 1017.0
20260904063106 67 202 0.0 0.0 0.00 0.00 0.00 79 1016.9
20260904061549 66 240 0.0 0.0 0.00 0.00 0.00 80 1016.9
20260904060105 65 229 0.0 0.0 0.00 0.00 0.00 81 1017.1
20260904054550 64 209 0.0 0.0 0.00 0.00 0.00 81 1016.8
20260904053043 64 230 0.0 0.0 0.00 0.00 0.00 82 1017.1
20260904051542 63 231 0.0 0.0 0.00 0.00 0.00 81 1017.0
20260904050044 63 215 0.0 0.0 0.00 0.00 0.00 80 1017.0
20260904044538 64 214 0.0 0.0 0.00 0.00 0.00 79 1017.0
20260904043036 64 212 0.0 0.0 0.00 0.00 0.00 79 1017.0
20260904041536 64 209 0.0 0.0 0.00 0.00 0.00 79 1017.0
20260904040040 64 230 0.0 0.0 0.00 0.00 0.00 80 1017.2
20260904034532 63 231 0.0 0.0 0.00 0.00 0.00 80 1017.3
20260904033034 63 215 0.0 0.0 0.00 0.00 0.00 80 1017.3
20260904031529 63 213 0.0 0.0 0.00 0.00 0.00 80 1017.4
20260904030028 63 212 0.0 0.0 0.00 0.00 0.00 81 1017.6
20260904024526 63 212 0.0 0.0 0.00 0.00 0.00 81 1017.7
20260904023026 62 212 0.0 0.0 0.00 0.00 0.00 82 1017.8
20260904021539 61 231 0.0 0.0 0.00 0.00 0.00 83 1017.8
20260904020024 61 215 0.0 0.0 0.00 0.00 0.00 83 1018.0
20260904014523 60 213 0.0 0.0 0.00 0.00 0.00 83 1018.2
20260904013022 60 211 0.0 0.0 0.00 0.00 0.00 83 1017.9
20260904011521 60 210 0.0 0.0 0.00 0.00 0.00 82 1018.1
20260904010019 61 230 0.0 0.0 0.00 0.00 0.00 81 1017.9
20260904004522 61 230 0.0 0.0 0.00 0.00 0.00 81 1018.1
20260904003022 62 232 0.0 0.0 0.00 0.00 0.00 80 1018.0
20260904001512 62 214 0.0 0.0 0.00 0.00 0.00 80 1018.2
20260904000010 62 213 0.0 0.0 0.00 0.00 0.00 80 1018.5
20260903234507 63 213 0.0 0.0 0.00 0.00 0.00 78 1018.6
20260903233005 63 215 0.0 0.0 0.00 0.00 0.00 77 1018.7
20260903231503 64 215 0.0 0.0 0.00 0.00 0.00 76 1018.6
20260903230059 65 232 0.0 0.0 0.00 0.00 0.00 74 1018.7
20260903224556 66 231 0.0 0.0 0.00 0.00 0.00 73 1018.8
20260903223052 67 230 0.0 0.0 0.00 0.00 0.00 71 1018.8
20260903221550 68 230 0.0 0.0 0.00 0.00 0.00 70 1018.8
20260903220048 68 231 0.0 0.0 0.00 0.00 0.00 69 1018.9
20260903214546 68 215 0.0 0.0 0.00 0.00 0.00 68 1018.9
20260903213052 69 213 0.0 0.0 0.00 0.00 0.00 67 1019.0
20260903211545 69 211 0.0 0.0 0.00 0.00 0.00 66 1018.9
20260903210046 70 230 0.0 0.0 0.00 0.00 0.00 65 1019.0
20260903204544 69 229 0.0 0.0 0.00 0.00 0.00 66 1019.0
20260903203051 69 213 0.0 0.0 0.00 0.00 0.00 66 1018.9
20260903201541 69 213 0.0 0.0 0.00 0.00 0.00 66 1018.8
20260903200040 69 242 0.0 0.0 0.00 0.00 0.00 65 1018.5
20260903194539 70 210 0.0 0.0 0.00 0.00 0.00 64 1018.6
20260903193038 69 229 0.0 0.0 0.00 0.00 0.00 65 1018.8
20260903191541 69 213 0.0 0.0 0.00 0.00 0.00 67 1018.7
20260903190037 69 213 0.0 0.0 0.00 0.00 0.00 67 1018.7
20260903184537 70 213 0.0 0.0 0.00 0.00 0.00 66 1018.5
20260903183037 70 234 0.0 0.0 0.00 0.00 0.00 65 1018.3